sat.trackr.live / text

‹ back to catalog

TJS-20

NORAD 66142 · 2025-238A

PAYLOAD ACTIVE UNKNOWN

§ Identity

Operator
Country
PRC
Launch date
2025-10-23
Launch site
WSC
Launch vehicle
Mass (kg)
RCS (m²)

Purposes: comms

External: N2YO · Heavens-Above · Gunter

§ Orbital elements

Epoch: 2026-05-25T02:19:45.950304Z

Period
1,436.14 min
Inclination
5.5199°
Eccentricity
0.0004294
Mean motion
1.00268917 rev/d
Perigee alt
35,769.3 km
Apogee alt
35,805.5 km
Semi-major
42,165.5 km
B*
0.0000e+0
RAAN
299.6547°
Arg perigee
141.9894°
Mean anomaly
258.4114°
Rev number
210

§ Raw data

TJS-201 66142U 25238A   26145.09705961  .00000015  00000+0  00000+0 0  99982 66142   5.5199 299.6547 0004294 141.9894 258.4114  1.00268917  2109

JSON: /api/v1/satellites/66142 · /tle

For live sub-satellite position, see the globe view (requires WebGL).

§ Visibility from observer

Set your observer location to see the next 7 days of passes ≥ 10°. The values pass through the URL so the page stays shareable.

No JS? Fill the form by hand. The geolocation button needs JavaScript.